RH
32 29 28 27 27 27 26 26 26 27 28 29 30 31 31 31 30 30 28 27 26 25 25 25 25 24 24 24 23 23 23 24 24 25 25 25 25 25 25 25 25 24
31 27 27 28 27 26 26 26 26 27 28 29 30 31 32 32 32 31 29 29 28 27 27 27 26 25 24 23 23 23 24 24 24 25 26 26 26 26 26 26 26 26
29 27 27 28 27 26 25 25 26 27 28 29 30 31 31 31 30 30 29 28 27 27 26 26 25 25 24 24 24 24 24 25 25 26 27 27 27 27 27 27 27 27
27 26 27 28 27 26 25 25 26 27 28 28 29 29 29 29 28 27 26 26 26 25 25 25 25 25 25 25 26 26 27 27 27 28 28 29 29 28 29 28 28 28
28 27 29 28 27 26 25 26 27 27 26 26 27 27 26 26 25 25 25 25 25 25 25 26 26 26 26 27 27 28 28 28 28 29 29 29 29 28 28 28 28 28
30 29 30 29 28 26 26 27 26 25 25 25 26 25 25 25 24 24 25 25 25 25 26 26 26 26 26 26 27 27 27 27 27 28 28 27 27 27 27 27 28 28
33 31 31 30 29 27 26 26 25 25 24 24 25 24 23 24 24 24 25 25 26 26 25 25 25 25 25 25 25 25 25 25 25 25 25 25 24 24 24 23 24 24
36 32 32 31 30 28 27 25 24 25 24 24 23 23 24 24 24 25 25 25 26 25 25 25 24 25 24 24 24 24 23 22 21 20 19 18 17 16 16 15 15 16
37 33 33 32 30 28 26 24 24 24 24 23 23 23 24 24 25 26 26 27 27 26 26 25 25 24 23 22 21 19 17 15 13 12 10 9 8 7 7 6 6 6
37 34 34 33 30 28 26 25 25 24 23 23 24 24 25 25 26 27 27 28 27 26 25 22 20 18 15 13 11 8 7 5 4 3 3 2 2 2 2 2 2 2
37 36 35 33 31 29 27 26 26 25 24 24 24 25 26 27 28 29 29 28 25 21 18 13 10 8 5 4 3 2 1 1 1 1 1 1 1 1 1 1 1 1
38 38 35 34 33 30 28 27 27 26 25 25 26 27 28 30 30 29 27 22 17 12 7 4 3 2 1 1 1 1 1 1 1 1 1 1 1 1 1 1 1 1
40 39 37 36 35 31 29 29 28 27 26 27 28 30 31 30 28 25 19 13 7 4 2 1 1 1 1 1 -0 1 1 1 1 1 1 1 1 1 1 1 1 1
43 41 40 39 37 33 31 30 29 28 29 30 31 31 30 27 22 15 9 5 2 1 1 1 1 1 1 1 1 1 1 1 1 1 1 1 1 1 1 1 1 1
46 45 44 43 39 35 33 32 31 31 32 33 31 29 24 18 12 6 3 2 1 1 1 1 1 1 1 1 1 1 1 1 1 1 1 1 1 1 1 1 1 1
50 49 48 44 40 36 34 33 34 34 34 31 25 20 14 8 4 2 1 1 1 1 1 1 1 1 1 1 1 1 1 1 1 1 1 1 1 1 1 1 1 1
54 51 48 44 39 37 36 36 36 33 28 22 15 10 5 3 1 1 1 1 1 1 1 1 2 1 1 1 1 2 1 1 2 1 1 1 1 1 1 1 1 1
55 51 46 42 39 38 38 36 32 25 17 10 6 3 2 1 1 1 1 1 1 2 1 1 2 1 2 2 1 2 1 1 2 1 1 1 1 1 1 1 1 1
52 47 43 40 39 39 35 29 20 13 8 4 2 2 1 1 1 1 2 2 1 2 2 2 2 2 2 2 1 2 2 1 2 1 1 2 1 1 1 1 1 1
47 44 42 40 38 32 23 15 9 5 3 1 1 2 1 1 2 2 2 2 2 2 2 2 2 2 2 2 2 2 2 1 2 2 1 1 2 1 2 1 1 1
45 43 40 35 28 19 11 6 4 2 1 1 1 2 2 2 2 2 2 2 2 2 2 2 2 2 2 2 2 2 2 2 2 2 2 2 2 1 2 2 1 1
45 40 33 24 15 8 5 2 2 1 2 2 2 2 2 2 2 3 2 2 3 2 3 2 2 3 2 2 2 2 2 2 2 2 2 1 2 2 1 2 2 1
50 42 29 17 8 4 2 1 2 2 2 2 2 2 3 2 3 3 3 3 3 3 3 3 3 3 3 2 3 2 2 2 2 2 2 2 2 2 2 2 2 2
53 40 22 9 3 2 2 2 2 2 2 3 3 2 3 3 3 3 3 3 3 3 3 3 3 3 3 3 3 3 2 2 2 2 2 2 2 2 2 2 2 2
36 19 8 3 2 2 2 2 2 2 3 3 3 3 3 3 3 4 3 3 4 3 3 3 3 3 3 3 3 3 3 3 3 2 2 2 2 2 2 2 2 3
10 4 2 2 2 2 2 2 3 3 3 3 3 3 3 4 4 4 4 4 4 4 4 4 4 4 3 3 3 3 3 3 3 3 3 2 2 2 2 2 3 5
Wind_Speed
11 11 12 12 12 12 11 11 11 12 12 13 13 14 14 14 15 15 15 16 17 18 19 20 20 21 22 22 22 23 23 23 23 24 24 24 24 24 24 24 25 25
13 13 13 13 13 12 12 12 13 13 14 14 14 15 15 15 15 16 16 17 18 19 20 21 21 22 22 23 23 24 24 24 24 24 25 25 25 25 25 26 26 27
14 14 14 13 13 13 13 13 13 14 14 14 15 15 15 15 15 16 17 18 19 20 20 21 22 22 23 24 24 24 24 25 25 25 25 26 26 27 27 28 28 28
15 15 14 14 14 14 14 14 14 14 14 15 15 15 15 15 15 16 17 18 19 20 21 21 22 23 24 25 25 26 26 26 26 27 27 27 28 28 28 29 29 29
16 15 15 15 14 15 15 15 15 14 14 15 15 15 15 15 16 17 17 18 20 21 22 23 24 25 26 26 27 27 28 28 28 28 28 28 28 28 28 28 29 29
17 16 15 15 15 16 16 15 15 14 14 14 14 14 15 15 16 17 18 20 21 23 24 25 26 27 28 28 29 29 29 29 30 30 30 30 30 30 29 29 29 30
17 16 16 16 16 17 17 16 15 14 14 14 14 14 14 15 17 18 20 22 23 25 26 28 29 30 30 30 31 31 31 31 31 31 31 32 32 32 32 32 32 32
17 16 16 16 17 17 17 16 15 14 14 14 14 14 15 17 18 20 22 24 25 27 28 30 31 31 31 31 32 32 32 32 32 33 33 33 33 33 33 33 33 33
18 17 17 17 17 18 17 16 15 14 14 14 15 16 17 19 21 22 24 26 27 29 30 31 31 31 32 32 32 33 33 33 33 33 34 33 34 34 34 34 34 35
18 18 17 17 17 18 17 16 15 15 15 15 16 17 19 21 23 24 26 27 29 30 30 31 31 31 32 32 32 32 31 31 31 31 31 31 31 32 32 32 33 33
19 18 18 17 18 18 17 16 16 16 16 17 18 19 21 23 25 26 28 29 30 30 30 30 30 29 29 28 28 28 28 28 27 28 28 28 29 29 29 30 30 31
19 18 18 18 18 17 17 17 17 17 17 18 19 21 23 25 26 28 29 29 29 28 28 27 26 25 25 24 24 24 25 25 25 26 26 27 27 28 28 29 29 30
18 18 18 18 18 17 17 17 17 17 18 19 20 22 24 25 27 28 28 28 27 25 23 22 21 21 22 22 22 23 23 23 24 25 25 26 27 27 28 28 29 29
18 17 17 18 18 17 17 17 17 18 18 19 21 22 24 25 26 26 25 24 22 20 20 19 19 19 20 20 21 22 23 24 24 25 26 26 27 28 29 29 30 30
17 17 17 17 17 17 17 17 17 18 18 19 20 21 22 23 23 22 20 18 17 17 18 18 18 19 19 20 22 23 24 25 26 27 27 28 28 29 30 31 31 31
17 17 17 16 16 16 16 17 17 17 17 17 18 19 20 20 18 17 15 15 15 16 17 18 19 20 21 22 23 24 25 26 27 27 28 28 28 28 29 30 31 32
16 15 15 15 14 14 15 16 16 16 15 15 16 17 16 14 12 12 12 13 14 15 16 18 19 20 22 22 23 24 25 26 27 28 28 29 29 29 30 30 31 32
14 14 13 13 13 13 14 14 14 13 13 13 13 12 10 9 9 10 11 12 14 15 16 18 19 20 22 23 24 25 26 27 28 28 29 30 30 31 32 32 32 32
12 11 11 11 12 12 12 12 11 10 10 9 8 7 7 7 8 10 11 12 13 15 16 18 19 20 22 23 24 26 27 28 28 29 30 31 32 33 33 33 34 34
10 10 10 10 10 11 10 8 7 6 6 5 5 5 6 7 8 9 10 12 13 14 16 18 19 21 22 23 25 26 27 28 29 30 31 32 33 34 34 35 35 36
8 8 9 9 9 8 6 4 4 4 4 4 5 5 5 7 8 9 10 11 13 15 16 18 19 21 22 23 25 26 27 28 29 30 31 31 32 33 35 35 36 36
7 8 8 8 6 4 2 2 3 4 4 4 4 4 5 6 8 9 10 12 13 15 16 18 19 21 22 24 25 26 27 28 29 30 30 31 32 33 34 35 36 37
7 8 8 6 4 1 2 4 5 5 4 3 3 4 5 6 7 8 10 12 13 15 16 18 19 21 23 24 25 26 27 28 28 29 30 31 32 34 35 36 37 38
9 8 7 5 3 4 6 6 6 4 2 1 2 4 5 6 7 9 11 12 14 15 17 18 20 22 23 24 25 26 26 27 28 29 30 31 33 34 36 38 38 39
8 7 6 5 6 7 8 7 5 3 1 1 2 3 4 6 8 10 11 13 14 16 17 19 20 22 23 24 24 25 26 27 28 30 31 32 34 36 38 39 40 41
8 8 7 8 9 9 8 6 4 2 1 1 2 3 5 7 9 10 12 14 15 16 18 19 20 21 22 23 24 25 26 28 29 30 32 34 36 38 39 41 43 43
Wind_Direction
248 250 256 266 274 279 281 282 284 286 291 295 298 301 302 303 303 303 304 304 304 305 305 306 306 307 308 309 309 308 307 307 307 306 307 307 308 308 309 310 309 309
246 249 257 267 273 277 279 282 286 289 293 296 299 302 302 302 302 303 305 306 307 306 306 306 306 306 307 307 307 306 305 304 303 303 303 303 304 304 304 304 304 304
243 247 255 265 271 276 278 282 286 290 293 296 299 301 301 302 303 305 307 307 308 307 307 307 307 306 306 305 304 303 302 302 301 301 301 301 301 301 300 300 299 299
241 246 255 265 270 274 277 281 286 289 293 297 300 302 303 304 306 307 309 310 309 310 309 308 307 306 305 304 304 303 303 302 302 302 302 301 301 301 300 299 298 298
241 246 255 265 269 273 276 281 285 289 295 300 301 303 304 306 308 310 312 312 312 312 312 311 310 309 309 308 307 307 306 305 305 304 304 303 303 302 301 300 299 297
241 246 255 264 268 272 277 281 286 291 296 299 300 302 304 307 310 312 313 313 314 314 314 314 314 313 313 312 311 310 309 308 308 307 306 306 305 304 303 301 299 297
241 246 255 263 267 272 277 281 286 292 295 297 298 300 304 307 310 312 313 313 314 314 315 315 315 314 314 313 312 312 311 310 309 309 308 307 306 304 303 301 300 298
241 247 255 261 266 271 275 280 285 290 292 294 296 299 304 307 309 311 311 312 312 313 314 314 314 313 313 312 311 311 310 309 308 308 307 306 305 303 302 301 299 297
241 247 253 259 265 269 274 279 284 287 289 292 296 299 303 305 307 308 308 310 312 313 313 313 313 312 311 310 310 309 308 308 307 307 307 306 306 304 303 302 301 299
240 245 252 257 263 268 273 278 282 285 287 290 294 298 301 303 304 306 308 311 312 313 313 312 312 311 310 310 309 309 310 310 310 311 311 310 310 309 308 307 305 304
238 244 251 257 263 269 273 277 280 283 285 289 293 296 300 302 304 307 310 312 313 313 313 313 313 313 313 314 315 316 317 318 319 319 319 318 318 317 315 314 312 310
237 244 251 257 264 269 273 276 279 282 285 289 294 297 301 304 307 310 312 313 314 315 316 318 319 320 322 325 326 328 328 329 329 328 327 327 325 324 323 321 319 317
238 245 252 259 264 268 272 276 279 283 287 291 295 299 302 306 309 312 314 315 317 320 323 327 331 334 336 337 336 336 336 336 336 335 334 333 331 329 328 326 324 322
240 247 254 260 264 268 272 277 281 284 288 293 297 301 305 309 312 314 316 319 323 330 335 339 344 345 344 343 341 341 342 341 341 340 339 338 336 333 332 330 329 327
243 250 256 261 265 269 274 279 282 286 290 295 301 306 310 313 316 318 323 329 336 343 346 348 350 349 347 347 346 346 346 345 344 343 341 340 338 336 335 333 331 329
245 251 256 261 266 271 276 280 283 287 294 301 308 313 315 317 321 327 336 345 350 352 353 353 352 352 351 351 351 350 349 347 346 344 343 341 340 338 337 335 333 331
246 252 257 263 269 273 277 280 285 292 300 309 315 318 321 326 335 346 353 356 357 357 356 355 354 354 355 354 354 353 351 350 349 347 345 344 342 341 339 338 337 334
247 254 260 265 270 275 278 281 288 298 309 318 323 327 336 347 357 2 3 2 0 359 357 357 357 356 357 356 356 355 354 353 351 349 348 346 345 344 342 341 340 337
251 256 261 266 271 274 277 283 294 309 322 328 337 350 3 11 11 8 6 3 0 359 358 358 359 358 359 359 358 357 357 355 353 352 352 350 349 348 346 344 342 340
255 260 264 268 270 271 277 289 309 327 341 353 12 25 24 19 14 8 5 1 0 1 2 2 2 2 2 2 0 360 359 357 356 357 356 355 353 351 349 348 346 344
265 267 267 266 266 270 282 309 341 6 30 44 44 35 23 14 8 5 3 3 4 6 6 6 6 5 5 4 3 2 1 359 359 360 359 358 356 355 353 352 350 348
273 272 267 263 264 272 297 28 59 70 74 68 48 24 12 7 5 5 6 9 10 10 9 9 8 8 7 7 5 4 2 2 2 1 0 360 359 359 358 356 354 353
272 269 263 257 251 217 108 97 97 98 93 73 30 12 8 6 8 10 12 13 13 12 12 11 10 10 10 9 7 5 4 3 2 2 2 2 2 2 2 2 1 359
264 257 246 225 182 134 119 116 117 116 103 54 18 13 10 10 13 16 16 16 15 14 13 13 12 12 11 10 8 6 4 4 3 3 4 4 5 6 6 6 5 4
240 223 202 171 143 130 128 129 129 129 110 43 26 18 16 17 18 19 18 17 16 15 14 14 14 13 11 10 8 6 5 5 5 5 6 6 7 9 9 9 8 7
197 182 164 146 137 134 136 139 140 144 129 67 44 27 22 23 21 20 18 17 16 16 15 14 13 12 11 9 8 7 7 7 7 8 9 9 10 11 10 10 10 8